Weather in Chapayevo

Russia / Astrakhan Oblast     45°58′40″N   48°16′17″E
temp.,
°C
wind,
m/s
gust,
m/s
humid.,
%
clouds,
%
prec.,
mm/h
press.,
hPa
HPBL,
m
1 march, mon
mon101:000nnw2277100 0.0 101875
04:000nw1277100 0.0 102024
07:00−1w2281100 0.0 102127
10:00+2nw357692 0.0 1023626
13:00+3wnw457499 0.1 1025702
16:00+4wnw467696 0.1 1024677
19:00+2nnw228944 0.0 102525
22:00+2ssw119368 0.0 102626
2 march, tue
tue201:00+1wsw229875 0.0 102740
04:00+1w129987 0.1 1027101
07:00+1nw239896 0.0 1027166
10:00+1sw239497 0.1 1027205
13:00+3w5781100 0.1 1026682
16:00+4w796994 0.2 10241135
19:00+3wsw496894 0.0 1022664
22:00+3sw5117397 0.1 1021576
3 march, wed
wed301:00+4sw71469100 0.0 1019586
04:00+3sw81577100 0.0 1016649
07:00+3wsw91576100 0.0 1015898
10:00+3wsw101583100 0.1 10151066
13:00+5w111674100 0.0 10141397
16:00+3w101495100 0.8 1013876
19:00+2wnw81296100 0.4 1015763
22:00+1wnw6118083 0.4 1018473
4 march, thu
thu401:000wnw512790 0.0 1018511
04:00−1nw6116725 0.0 1021696
07:00−2wnw5107318 0.0 1023809
10:00+1wnw68559 0.0 1026856
13:00+4w68480 0.0 10261118
16:00+5w67430 0.0 10251276
19:00+2ssw46590 0.0 1024124
22:00+1ssw510630 0.0 1024216
5 march, fri
fri501:000ssw613640 0.0 1024358
04:000ssw512770 0.0 1023311
07:00−1ssw410870 0.0 1022239
10:00+4ssw610680 0.0 1023631
13:00+7ssw78620 0.0 1022855
16:00+7ssw68630 0.0 1021758
19:00+4ssw48770 0.0 1020270
22:00+2ssw48850 0.0 1021183